Voltar ao catálogo

USA 563

AtivoMilitarVLEO
NORAD 65709·PAYLOAD·🇺🇸 United States

Lançado Sep 22, 2025 de Vandenberg Space Force Base

Loading…

Próximas Passagens (próximas 24 horas)

TLE

ObsoletoSource: Mike McCants

Época: Aug 9, 2026, 21:32 UTC

1 65709U 25213F   26221.89765027 0.00000000  00000-0  00000-0 0    00
2 65709  70.0222 252.1310 0003000 170.5749 189.4251 14.96713700    00

Acompanhe USA 563 em tempo real com AllMySat

Download on the App Store